EHI
0 0 0 0 0 0 0 0 0 0 0 0 0 0 0 0 0 0 0 0 0 0 0 0 0 0 0 0 0 0 0 0 0 0 0 0 0 0 0 0 0 0 0 0
0 0 0 0 0 0 0 0 0 0 0 0 0 0 0 0 0 0 0 0 0 0 0 0 0 0 0 0 0 0 0 0 0 0 0 0 0 0 0 0 0 0 0 0
0 0 0 0 0 0 0 0 0 0 0 0 0 0 0 0 0 0 0 0 0 0 0 0 0 0 0 0 0 0 0 0 0 0 0 0 0 0 0 0 0 0 0 0
0 0 0 0 0 0 0 0 0 0 0 0 0 0 0 0 0 0 0 0 0 0 0 0 0 0 0 0 0 0 0 0 0 0 0 0 0 0 0 0 0 0 0 0
0 0 0 0 0 0 0 0 0 0 0 0 0 0 0 0 0 0 0 0 0 0 0 0 0 0 0 0 0 0 0 0 0 0 0 0 0 0 0 0 0 0 0 0
0 0 0 0 0 0 0 0 0 0 0 0 0 0 0 0 0 0 0 0 0 0 0 0 0 0 0 0 0 0 0 0 0 0 0 0 0 0 0 0 0 0 0 0
0 0 0 0 0 0 0 0 0 0 0 0 0 0 0 0 0 0 0 0 0 0 0 0 0 0 0 0 0 0 0 0 0 0 0 0 0 0 0 0 0 0 0 0
0 0 0 0 0 0 0 0 0 0 0 0 0 0 0 0 0 0 0 0 0 0 0 0 0 0 0 0 0 0 0 0 0 0 0 0 0 0 0 0 0 0 0 0
0 0 0 0 0 0 0 0 0 0 0 0 0 0 0 0 0 0 0 0 0 0 0 0 0 0 0 0 0 0 0 0 0 0 0 0 0 0 0 0 0 0 0 0
0 0 0 0 0 0 0 0 0 0 0 0 0 0 0 0 0 0 0 0 0 0 0 0 0 0 0 0 0 0 0 0 0 0 0 0 0 0 0 0 0 0 0 0
0 0 0 0 0 0 0 0 0 0 0 0 0 0 0 0 0 0 0 0 0 0 0 0 0 0 0 0 0 0 0 0 0 0 0 0 0 0 0 0 0 0 0 0
0 0 0 0 0 0 0 0 0 0 0 0 0 0 0 0 0 0 0 0 0 0 0 0 0 0 0 0 0 0 0 0 0 0 0 0 0 0 0 0 0 0 0 0
0 0 0 0 0 0 0 0 0 0 0 0 0 0 0 0 0 0 0 0 0 0 0 0 0 0 0 0 0 0 0 0 0 0 0 0 0 0 0 0 0 0 0 0
0 0 0 0 0 0 0 0 0 0 0 0 0 0 0 0 0 0 0 0 0 0 0 0 0 0 0 0 0 0 0 0 0 0 0 0 0 0 0 0 0 0 0 0
0 0 0 0 0 0 0 0 0 0 0 0 0 0 0 0 0 0 0 0 0 0 0 0 0 0 0 0 0 0 0 0 0 0 0 0 0 0 0 0 0 0 0 0
0 0 0 0 0 0 0 0 0 0 0 0 0 0 0 0 0 0 0 0 0 0 0 0 0 0 0 0 0 0 0 0 0 0 0 0 0 0 0 0 0 0 0 0
0 0 0 0 0 0 0 0 0 0 0 0 0 0 0 0 0 0 0 0 0 0 0 0 0 0 0 0 0 0 0 0 0 0 0 0 0 0 0 0 0 0 0 0
0 0 0 0 0 0 0 0 0 0 0 0 0 0 0 0 0 0 0 0 0 0 0 0 0 0 0 0 0 0 0 0 0 0 0 0 0 0 0 0 0 0 0 0
0 0 0 0 0 0 0 0 0 0 0 0 0 0 0 0 0 0 0 0 0 0 0 0 0 0 0 0 0 0 0 0 0 0 0 0 0 0 0 0 0 0 0 0
0 0 0 0 0 0 0 0 0 0 0 0 0 0 0 0 0 0 0 0 0 0 0 0 0 0 0 0 0 0 0 0 0 0 0 0 0 0 0 0 0 0 0 0
0 0 0 0 0 0 0 0 0 0 0 0 0 0 0 0 0 0 0 0 0 0 0 0 0 0 0 0 0 0 0 0 0 0 0 0 0 0 0 0 0 0 0 0
0 0 0 0 0 0 0 0 0 0 0 0 0 0 0 0 0 0 0 0 0 0 0 0 0 0 0 0 0 0 0 0 0 0 0 0 0 0 0 0 0 0 0 0
0 0 0 0 0 0 0 0 0 0 0 0 0 0 0 0 0 0 0 0 0 0 0 0 0 0 0 0 0 0 0 0 0 0 0 0 0 0 0 0 0 0 0 0
0 0 0 0 0 0 0 0 0 0 0 0 0 0 0 0 0 0 0 0 0 0 0 0 0 0 0 0 0 0 0 0 0 0 0 0 0 0 0 0 0 0 0 0
0 0 0 0 0 0 0 0 0 0 0 0 0 0 0 0 0 0 0 0 0 0 0 0 0 0 0 0 0 0 0 0 0 0 0 0 0 0 0 0 0 0 0 0
0 0 0 0 0 0 0 0 0 0 0 0 0 0 0 0 0 0 0 0 0 0 0 0 0 0 0 0 0 0 0 0 0 0 0 0 0 0 0 0 0 0 0 0
0 0 0 0 0 0 0 0 0 0 0 0 0 0 0 0 0 0 0 0 0 0 0 0 0 0 0 0 0 0 0 0 0 0 0 0 0 0 0 0 0 0 0 0
Wind_Speed
7 5 3 5 7 6 8 8 9 8 6 7 8 8 8 6 5 3 1 1 3 4 5 6 6 7 7 8 9 10 10 10 11 11 11 11 11 11 11 11 13 12 13 13
5 2 3 6 7 6 7 6 8 7 7 2 6 6 6 6 5 3 1 1 3 4 5 6 6 7 8 8 9 9 9 10 11 11 11 11 10 10 11 11 11 12 13 14
5 6 5 7 6 8 7 8 8 8 6 7 6 8 8 7 5 3 1 1 3 4 5 5 6 6 8 8 8 9 9 10 10 10 11 11 12 11 11 11 11 12 13 14
3 7 5 5 2 5 6 7 7 5 5 8 6 6 4 5 6 4 2 0 2 3 4 4 5 6 7 7 7 8 8 9 10 10 10 10 10 10 10 9 10 10 11 14
1 3 11 8 4 4 5 7 6 8 7 7 9 6 2 4 5 5 3 2 0 1 2 4 5 6 7 7 7 7 8 9 10 10 10 10 10 10 9 8 8 10 11 13
3 2 8 6 2 2 3 7 4 9 11 10 10 3 5 7 6 5 3 2 1 1 3 4 6 6 6 7 7 8 9 10 10 9 10 9 9 9 8 8 9 11 11 11
4 6 13 5 5 5 3 7 5 9 10 11 9 6 6 9 6 5 4 2 1 2 3 4 6 5 6 6 7 9 9 9 9 9 8 8 8 7 8 9 10 9 10 10
5 4 13 6 8 10 9 3 6 7 8 7 7 8 9 8 7 5 4 2 1 2 3 5 5 5 6 7 8 8 8 8 8 8 7 9 8 8 8 8 8 7 7 9
13 12 5 9 9 6 6 7 6 7 6 9 10 8 8 7 6 5 3 2 0 2 3 5 5 4 5 7 7 8 8 8 8 8 7 7 7 7 7 6 6 7 6 7
8 11 6 7 4 5 6 7 7 7 9 10 9 9 8 7 6 4 3 1 0 2 3 4 5 5 5 7 7 7 8 8 7 7 7 7 6 6 6 6 6 6 6 7
8 8 3 4 7 8 6 7 8 7 7 10 11 9 8 7 6 5 3 1 1 1 3 4 5 5 6 6 7 7 8 8 8 8 7 7 7 6 8 5 9 8 5 5
11 9 8 8 9 11 11 10 11 9 8 7 9 10 8 7 6 5 3 2 1 2 3 4 4 5 6 6 6 6 8 8 6 6 6 7 7 8 13 14 17 17 15 12
5 3 4 2 8 10 11 11 10 10 11 9 8 8 9 6 5 4 3 3 2 3 3 3 4 5 6 6 7 6 7 8 7 7 7 7 7 8 9 12 16 16 16 16
5 6 4 5 8 9 9 10 8 7 7 9 8 7 7 6 5 5 5 4 3 3 2 3 4 5 6 6 7 7 7 9 9 6 6 6 7 7 7 9 10 9 12 15
7 6 7 7 9 10 11 11 10 8 8 7 7 8 8 8 7 6 4 3 2 2 2 3 4 5 6 6 7 7 7 6 6 5 5 6 6 7 7 8 8 9 8 10
6 6 8 10 14 13 12 12 12 12 11 9 8 8 8 7 6 5 4 3 2 3 3 3 4 5 6 6 7 6 5 12 10 6 6 7 7 7 7 8 9 8 9 9
12 10 10 11 14 14 15 14 14 15 13 12 11 9 8 6 5 5 5 4 3 4 4 4 4 5 6 6 5 4 4 7 12 7 6 6 6 6 7 8 8 9 9 12
14 13 15 17 19 17 15 12 11 13 13 12 10 10 10 9 8 7 5 3 2 3 4 4 4 5 5 5 4 3 4 4 5 5 6 6 7 6 7 8 9 10 10 12
11 12 12 13 15 16 15 14 13 12 10 11 13 12 10 9 7 6 5 4 4 4 4 4 5 3 4 6 5 2 3 5 5 5 5 9 8 7 7 8 9 10 10 10
11 11 12 12 12 12 13 12 11 11 11 12 11 10 9 8 7 6 6 5 5 5 4 4 4 3 4 5 4 2 3 4 5 5 6 6 7 8 8 9 10 10 10 11
13 12 13 13 13 12 13 13 14 13 12 13 13 13 11 9 8 7 5 5 5 6 6 5 2 3 4 2 3 2 3 4 4 5 6 6 7 8 8 9 10 10 10 11
13 14 14 14 13 12 11 11 12 13 13 12 11 9 9 9 8 7 6 5 4 7 5 3 3 5 3 0 0 1 2 3 4 4 5 5 6 7 8 10 10 10 10 11
12 13 14 14 14 11 10 10 12 13 14 15 14 13 12 10 9 8 7 6 5 8 5 4 6 6 2 2 0 1 2 3 3 4 4 5 5 6 7 9 9 10 10 11
13 13 12 10 11 12 13 12 11 10 10 11 11 11 10 8 7 6 4 7 11 10 5 6 8 5 3 2 1 1 2 3 3 3 4 4 5 5 6 8 9 9 10 12
12 12 13 14 14 12 12 11 9 8 8 7 7 8 8 7 7 7 6 6 10 9 5 7 8 6 4 2 2 2 2 3 3 3 3 4 5 6 6 7 8 9 10 10
12 12 12 11 10 9 10 10 10 9 9 9 8 8 8 6 5 5 6 7 9 9 6 4 4 5 3 3 3 3 2 3 3 3 4 4 5 6 6 8 10 9 9 10
9 8 8 7 6 9 10 11 11 11 12 11 9 9 9 8 8 7 7 7 7 6 5 5 5 4 4 4 4 3 3 3 3 3 3 4 4 5 6 8 8 9 9 10
Wind_Direction
260 269 243 239 230 202 195 202 217 244 239 227 189 173 169 166 166 171 186 346 3 359 346 342 342 338 335 333 335 336 335 335 333 328 326 326 328 328 329 330 334 329 328 327
293 315 293 266 245 222 219 218 235 256 262 174 129 126 146 165 172 177 187 4 2 356 348 344 339 334 334 333 333 332 331 331 330 332 333 333 333 334 334 332 331 332 333 331
290 313 331 290 236 193 212 215 202 224 225 150 151 167 172 177 176 175 168 29 2 347 336 332 328 326 328 326 326 330 330 330 333 334 335 336 338 339 336 333 333 335 334 336
314 351 295 257 179 196 216 239 212 202 165 166 153 142 151 167 169 172 164 116 344 335 330 325 320 323 321 322 328 329 329 331 334 336 335 335 337 339 335 330 335 335 335 339
94 300 281 291 222 192 204 270 205 172 150 125 119 113 186 194 172 171 165 155 184 322 314 319 323 324 325 328 331 333 337 337 337 337 337 338 341 338 333 330 333 338 341 340
142 234 257 258 164 131 86 277 206 157 154 154 154 179 224 177 161 154 143 130 93 352 337 334 326 327 333 333 336 339 338 334 333 336 335 335 336 331 329 330 337 339 340 339
184 233 265 245 153 127 187 258 163 153 156 162 183 188 155 147 152 150 139 124 84 20 347 323 320 331 337 334 335 329 329 329 332 333 329 335 331 326 328 334 335 332 334 335
164 216 260 184 147 189 214 135 137 145 151 148 140 125 136 148 152 150 142 121 56 12 341 321 325 337 336 331 321 322 327 329 328 327 330 343 326 322 324 327 327 327 332 338
193 220 236 175 194 197 147 153 160 152 148 137 140 152 155 156 157 156 151 146 54 356 332 324 328 333 328 317 319 326 329 327 323 323 321 324 319 317 321 325 327 333 337 340
249 261 236 211 204 170 163 158 155 145 145 148 151 156 157 158 163 165 166 165 278 349 342 328 325 327 314 311 320 325 326 323 323 324 324 321 320 324 324 323 323 327 336 336
255 269 276 233 201 173 147 132 129 128 141 151 148 153 160 163 168 171 171 182 217 303 307 310 317 320 319 319 323 326 324 324 324 328 322 322 328 325 329 316 336 341 321 315
226 218 194 220 191 161 150 154 151 141 139 147 153 156 156 162 167 171 179 195 236 278 298 309 316 316 315 316 319 324 332 332 325 326 328 328 324 326 335 342 343 345 342 341
211 164 171 172 156 159 157 156 155 153 155 155 154 151 152 157 169 174 186 204 232 265 289 302 312 312 313 315 320 325 327 327 324 331 328 328 328 328 326 331 337 341 342 339
172 132 140 165 171 160 148 144 135 130 139 148 146 145 148 152 165 183 200 215 234 258 280 295 305 307 306 312 320 324 325 327 332 320 320 320 319 319 321 325 327 327 332 334
191 182 169 154 140 141 139 138 139 147 149 151 151 154 160 168 181 194 204 216 229 247 269 291 301 302 304 312 323 323 325 323 323 320 320 319 319 322 325 327 325 323 323 326
156 131 135 147 158 158 155 157 165 171 170 168 169 173 176 175 179 190 199 193 203 246 267 278 286 292 302 311 319 318 318 334 342 334 326 325 325 330 333 331 327 325 326 322
152 166 169 174 176 176 179 178 177 176 175 179 180 170 163 167 182 201 201 199 217 244 255 255 270 292 300 305 306 308 314 325 341 337 325 322 324 331 330 329 328 328 326 326
188 182 181 181 180 182 183 177 174 174 180 181 162 160 172 184 194 197 194 193 225 260 254 243 263 276 291 298 302 308 317 317 321 322 325 328 337 332 330 331 331 331 329 330
184 177 177 179 180 180 179 179 179 176 168 161 167 179 187 192 190 183 176 187 209 238 247 253 280 298 299 306 337 324 326 325 329 330 328 338 343 334 335 335 334 331 330 333
180 173 172 173 171 173 177 174 167 168 170 168 169 173 184 193 186 180 182 206 218 216 225 244 250 261 281 298 344 334 330 329 331 334 336 338 336 335 335 336 336 333 334 334
177 171 169 172 174 176 175 169 168 173 173 174 177 185 189 186 179 176 184 220 234 214 223 245 234 256 270 294 1 343 331 328 329 330 334 335 335 335 335 336 335 334 335 334
176 175 174 172 172 175 173 170 171 169 169 179 183 177 174 179 183 192 211 215 209 201 201 214 231 255 262 84 46 329 326 326 324 326 331 332 333 333 333 334 333 333 333 331
175 175 172 173 174 168 160 168 171 172 177 182 184 184 187 187 183 188 214 214 202 213 201 206 230 244 208 129 206 307 316 320 320 325 327 325 324 325 325 328 329 328 327 328
171 169 166 157 149 154 171 181 178 180 182 184 187 185 179 178 193 208 204 183 188 199 196 213 226 224 181 161 213 267 294 303 304 312 318 318 318 320 321 324 325 324 325 326
164 159 157 161 172 181 179 166 162 167 172 183 187 186 189 187 187 190 185 193 200 199 193 212 218 208 179 188 216 243 266 282 296 314 313 315 318 320 320 322 324 323 323 324
166 172 176 182 178 168 162 164 174 180 183 189 195 194 193 190 184 170 177 189 201 203 194 195 207 205 191 203 218 234 250 282 310 312 303 308 312 315 317 320 319 319 319 321
150 155 156 163 171 168 169 175 179 183 187 190 190 188 186 185 186 187 187 189 195 201 196 193 194 196 200 206 216 227 238 252 267 278 291 299 304 308 312 313 313 314 316 318